Time,TemperatureF,DewpointF,PressureIn,WindDirection,WindDirectionDegrees,WindSpeedMPH,WindSpeedGustMPH,Humidity,HourlyPrecipIn,Conditions,Clouds,dailyrainin,SoftwareType,DateUTC
2013-02-28 00:11:00,48.2,45.0,30.32,North,4,0.0,1.0,87,0.00,,,0.00,weatherlink.com 1.10,2013-02-28 08:11:00,
2013-02-28 00:26:00,48.7,45.0,30.32,North,4,0.0,1.0,87,0.00,,,0.00,weatherlink.com 1.10,2013-02-28 08:26:00,
2013-02-28 00:41:00,49.2,46.0,30.32,North,4,0.0,0.0,87,0.00,,,0.00,weatherlink.com 1.10,2013-02-28 08:41:00,
2013-02-28 00:56:00,49.6,46.0,30.32,North,4,0.0,0.0,86,0.00,,,0.00,weatherlink.com 1.10,2013-02-28 08:56:00,
2013-02-28 01:11:00,49.5,46.0,30.32,North,4,0.0,1.0,86,0.00,,,0.00,weatherlink.com 1.10,2013-02-28 09:11:00,
2013-02-28 01:26:00,49.5,46.0,30.33,North,4,0.0,0.0,86,0.00,,,0.00,weatherlink.com 1.10,2013-02-28 09:26:00,
2013-02-28 01:41:00,49.6,46.0,30.33,North,4,0.0,0.0,86,0.00,,,0.00,weatherlink.com 1.10,2013-02-28 09:41:00,
2013-02-28 01:56:00,49.5,46.0,30.33,North,4,0.0,0.0,86,0.00,,,0.00,weatherlink.com 1.10,2013-02-28 09:56:00,
2013-02-28 02:11:00,49.3,45.0,30.33,North,4,0.0,0.0,86,0.00,,,0.00,weatherlink.com 1.10,2013-02-28 10:11:00,
2013-02-28 02:26:00,48.8,45.0,30.33,North,4,0.0,0.0,86,0.00,,,0.00,weatherlink.com 1.10,2013-02-28 10:26:00,
2013-02-28 02:41:00,48.7,45.0,30.33,North,4,1.0,1.0,87,0.00,,,0.00,weatherlink.com 1.10,2013-02-28 10:41:00,
2013-02-28 02:56:00,49.5,46.0,30.33,SE,135,0.0,1.0,86,0.00,,,0.00,weatherlink.com 1.10,2013-02-28 10:56:00,
2013-02-28 03:11:00,50.1,46.0,30.33,South,174,0.0,0.0,85,0.00,,,0.00,weatherlink.com 1.10,2013-02-28 11:11:00,
2013-02-28 03:27:00,49.6,45.0,30.33,SSW,206,0.0,0.0,85,0.00,,,0.00,weatherlink.com 1.10,2013-02-28 11:27:00,
2013-02-28 03:42:00,48.7,45.0,30.33,SSW,206,0.0,0.0,87,0.00,,,0.00,weatherlink.com 1.10,2013-02-28 11:42:00,
2013-02-28 03:56:00,48.2,45.0,30.33,SSW,206,0.0,0.0,88,0.00,,,0.00,weatherlink.com 1.10,2013-02-28 11:56:00,
2013-02-28 04:12:00,48.2,45.0,30.33,SSW,206,0.0,0.0,89,0.00,,,0.00,weatherlink.com 1.10,2013-02-28 12:12:00,
2013-02-28 04:27:00,48.0,45.0,30.33,SSW,206,0.0,0.0,88,0.00,,,0.00,weatherlink.com 1.10,2013-02-28 12:27:00,
2013-02-28 04:42:00,47.7,45.0,30.33,SSW,206,0.0,0.0,89,0.00,,,0.00,weatherlink.com 1.10,2013-02-28 12:42:00,
2013-02-28 04:57:00,46.8,44.0,30.34,SSW,206,0.0,0.0,90,0.00,,,0.00,weatherlink.com 1.10,2013-02-28 12:57:00,
2013-02-28 05:12:00,46.3,44.0,30.35,SSW,206,0.0,0.0,91,0.00,,,0.00,weatherlink.com 1.10,2013-02-28 13:12:00,
2013-02-28 05:27:00,46.6,44.0,30.35,SSW,206,0.0,0.0,91,0.00,,,0.00,weatherlink.com 1.10,2013-02-28 13:27:00,
2013-02-28 05:42:00,46.8,44.0,30.36,SSW,206,0.0,0.0,91,0.00,,,0.00,weatherlink.com 1.10,2013-02-28 13:42:00,
2013-02-28 05:57:00,47.2,45.0,30.36,SSW,206,0.0,0.0,91,0.00,,,0.00,weatherlink.com 1.10,2013-02-28 13:57:00,
2013-02-28 06:12:00,47.3,45.0,30.36,SSW,206,0.0,0.0,91,0.00,,,0.00,weatherlink.com 1.10,2013-02-28 14:12:00,
2013-02-28 06:27:00,47.1,45.0,30.37,SSW,206,0.0,0.0,91,0.00,,,0.00,weatherlink.com 1.10,2013-02-28 14:27:00,
2013-02-28 06:42:00,47.4,45.0,30.37,SSW,206,0.0,0.0,92,0.00,,,0.00,weatherlink.com 1.10,2013-02-28 14:42:00,
2013-02-28 06:57:00,47.6,45.0,30.37,SSW,206,0.0,0.0,91,0.00,,,0.00,weatherlink.com 1.10,2013-02-28 14:57:00,
2013-02-28 07:12:00,47.9,46.0,30.37,SSW,206,0.0,0.0,91,0.00,,,0.00,weatherlink.com 1.10,2013-02-28 15:12:00,
2013-02-28 07:27:00,48.6,46.0,30.37,SSW,206,0.0,0.0,91,0.00,,,0.00,weatherlink.com 1.10,2013-02-28 15:27:00,
2013-02-28 07:42:00,49.0,46.0,30.37,SSW,206,0.0,0.0,90,0.00,,,0.00,weatherlink.com 1.10,2013-02-28 15:42:00,
2013-02-28 07:57:00,48.8,46.0,30.38,SSW,206,0.0,0.0,90,0.00,,,0.00,weatherlink.com 1.10,2013-02-28 15:57:00,
2013-02-28 08:12:00,49.6,47.0,30.39,ESE,120,0.0,1.0,90,0.00,,,0.00,weatherlink.com 1.10,2013-02-28 16:12:00,
2013-02-28 08:27:00,50.6,48.0,30.39,SE,127,0.0,1.0,89,0.00,,,0.00,weatherlink.com 1.10,2013-02-28 16:27:00,
2013-02-28 08:42:00,52.2,48.0,30.40,SSW,211,0.0,0.0,86,0.00,,,0.00,weatherlink.com 1.10,2013-02-28 16:42:00,
2013-02-28 08:57:00,53.9,49.0,30.40,SW,225,0.0,1.0,83,0.00,,,0.00,weatherlink.com 1.10,2013-02-28 16:57:00,
2013-02-28 09:12:00,55.4,50.0,30.40,West,264,0.0,1.0,81,0.00,,,0.00,weatherlink.com 1.10,2013-02-28 17:12:00,
2013-02-28 09:27:00,57.0,50.0,30.40,SW,224,0.0,1.0,78,0.00,,,0.00,weatherlink.com 1.10,2013-02-28 17:27:00,
2013-02-28 09:42:00,58.7,51.0,30.41,SW,221,0.0,1.0,75,0.00,,,0.00,weatherlink.com 1.10,2013-02-28 17:42:00,
2013-02-28 09:57:00,60.2,50.0,30.40,NW,305,2.0,4.0,70,0.00,,,0.00,weatherlink.com 1.10,2013-02-28 17:57:00,
2013-02-28 10:13:00,61.7,51.0,30.40,NNE,25,0.0,4.0,68,0.00,,,0.00,weatherlink.com 1.10,2013-02-28 18:13:00,
2013-02-28 10:28:00,62.5,51.0,30.39,NNE,33,2.0,3.0,67,0.00,,,0.00,weatherlink.com 1.10,2013-02-28 18:28:00,
2013-02-28 10:43:00,63.4,51.0,30.39,North,8,0.0,6.0,65,0.00,,,0.00,weatherlink.com 1.10,2013-02-28 18:43:00,
2013-02-28 10:58:00,65.8,52.0,30.39,South,179,1.0,4.0,61,0.00,,,0.00,weatherlink.com 1.10,2013-02-28 18:58:00,
2013-02-28 11:13:00,66.4,51.0,30.39,ENE,70,0.0,2.0,59,0.00,,,0.00,weatherlink.com 1.10,2013-02-28 19:13:00,
2013-02-28 11:28:00,66.9,52.0,30.38,ENE,65,0.0,3.0,59,0.00,,,0.00,weatherlink.com 1.10,2013-02-28 19:28:00,
2013-02-28 11:43:00,67.4,53.0,30.39,East,87,1.0,9.0,60,0.00,,,0.00,weatherlink.com 1.10,2013-02-28 19:43:00,
2013-02-28 11:58:00,67.3,53.0,30.38,East,101,0.0,6.0,61,0.00,,,0.00,weatherlink.com 1.10,2013-02-28 19:58:00,
2013-02-28 12:13:00,66.6,53.0,30.38,East,87,1.0,7.0,61,0.00,,,0.00,weatherlink.com 1.10,2013-02-28 20:13:00,
2013-02-28 12:28:00,67.5,51.0,30.38,NE,55,5.0,9.0,56,0.00,,,0.00,weatherlink.com 1.10,2013-02-28 20:28:00,
2013-02-28 12:43:00,66.5,51.0,30.38,ENE,62,0.0,8.0,58,0.00,,,0.00,weatherlink.com 1.10,2013-02-28 20:43:00,
2013-02-28 12:58:00,67.7,51.0,30.36,East,90,0.0,5.0,56,0.00,,,0.00,weatherlink.com 1.10,2013-02-28 20:58:00,
2013-02-28 13:13:00,68.6,52.0,30.36,South,191,0.0,5.0,55,0.00,,,0.00,weatherlink.com 1.10,2013-02-28 21:13:00,
2013-02-28 13:28:00,69.0,51.0,30.35,NNE,23,0.0,7.0,53,0.00,,,0.00,weatherlink.com 1.10,2013-02-28 21:28:00,
2013-02-28 13:43:00,69.1,53.0,30.35,SSW,193,0.0,8.0,56,0.00,,,0.00,weatherlink.com 1.10,2013-02-28 21:43:00,
2013-02-28 13:58:00,69.7,53.0,30.34,ESE,108,1.0,6.0,56,0.00,,,0.00,weatherlink.com 1.10,2013-02-28 21:58:00,
2013-02-28 14:13:00,69.6,52.0,30.35,NNE,16,0.0,6.0,54,0.00,,,0.00,weatherlink.com 1.10,2013-02-28 22:13:00,
2013-02-28 14:28:00,68.5,52.0,30.35,NNW,340,2.0,7.0,55,0.00,,,0.00,weatherlink.com 1.10,2013-02-28 22:28:00,
2013-02-28 14:43:00,67.8,51.0,30.35,ESE,102,0.0,7.0,56,0.00,,,0.00,weatherlink.com 1.10,2013-02-28 22:43:00,
2013-02-28 14:58:00,68.6,52.0,30.35,SW,217,0.0,6.0,56,0.00,,,0.00,weatherlink.com 1.10,2013-02-28 22:58:00,
2013-02-28 15:13:00,68.2,52.0,30.35,SE,135,1.0,6.0,56,0.00,,,0.00,weatherlink.com 1.10,2013-02-28 23:13:00,
2013-02-28 15:28:00,67.2,52.0,30.35,NE,54,2.0,5.0,58,0.00,,,0.00,weatherlink.com 1.10,2013-02-28 23:28:00,
2013-02-28 15:43:00,66.3,51.0,30.35,South,176,0.0,6.0,59,0.00,,,0.00,weatherlink.com 1.10,2013-02-28 23:43:00,
2013-02-28 15:58:00,66.4,51.0,30.34,NNE,24,0.0,4.0,59,0.00,,,0.00,weatherlink.com 1.10,2013-02-28 23:58:00,
2013-02-28 16:13:00,64.7,51.0,30.34,North,6,0.0,5.0,62,0.00,,,0.00,weatherlink.com 1.10,2013-03-01 00:13:00,
2013-02-28 16:28:00,63.7,52.0,30.34,NE,38,0.0,3.0,65,0.00,,,0.00,weatherlink.com 1.10,2013-03-01 00:28:00,
2013-02-28 16:43:00,62.0,52.0,30.34,WSW,245,0.0,7.0,69,0.00,,,0.00,weatherlink.com 1.10,2013-03-01 00:43:00,
2013-02-28 16:58:00,61.1,51.0,30.34,North,10,0.0,2.0,70,0.00,,,0.00,weatherlink.com 1.10,2013-03-01 00:58:00,
2013-02-28 17:13:00,60.5,51.0,30.34,WSW,240,0.0,4.0,71,0.00,,,0.00,weatherlink.com 1.10,2013-03-01 01:13:00,
2013-02-28 17:28:00,59.5,51.0,30.34,SSE,161,0.0,2.0,73,0.00,,,0.00,weatherlink.com 1.10,2013-03-01 01:28:00,
2013-02-28 17:43:00,58.8,51.0,30.34,South,179,0.0,4.0,74,0.00,,,0.00,weatherlink.com 1.10,2013-03-01 01:43:00,
2013-02-28 17:58:00,57.6,50.0,30.34,SSE,168,0.0,4.0,76,0.00,,,0.00,weatherlink.com 1.10,2013-03-01 01:58:00,
2013-02-28 18:13:00,56.2,50.0,30.34,SSE,157,0.0,4.0,79,0.00,,,0.00,weatherlink.com 1.10,2013-03-01 02:13:00,
2013-02-28 18:28:00,55.3,50.0,30.35,SSE,153,0.0,5.0,81,0.00,,,0.00,weatherlink.com 1.10,2013-03-01 02:28:00,
2013-02-28 18:43:00,55.0,49.0,30.35,East,82,1.0,6.0,81,0.00,,,0.00,weatherlink.com 1.10,2013-03-01 02:43:00,
2013-02-28 18:58:00,55.1,49.0,30.35,ENE,62,1.0,4.0,81,0.00,,,0.00,weatherlink.com 1.10,2013-03-01 02:58:00,
2013-02-28 19:13:00,54.7,49.0,30.36,North,11,0.0,4.0,82,0.00,,,0.00,weatherlink.com 1.10,2013-03-01 03:13:00,
2013-02-28 19:28:00,54.5,49.0,30.36,East,82,0.0,3.0,83,0.00,,,0.00,weatherlink.com 1.10,2013-03-01 03:28:00,
2013-02-28 19:43:00,54.3,49.0,30.36,NNW,347,0.0,3.0,83,0.00,,,0.00,weatherlink.com 1.10,2013-03-01 03:43:00,
2013-02-28 19:58:00,53.0,48.0,30.36,West,264,0.0,1.0,84,0.00,,,0.00,weatherlink.com 1.10,2013-03-01 03:58:00,
2013-02-28 20:13:00,51.8,48.0,30.37,West,264,0.0,1.0,87,0.00,,,0.00,weatherlink.com 1.10,2013-03-01 04:13:00,
2013-02-28 20:28:00,50.8,47.0,30.38,West,264,0.0,0.0,87,0.00,,,0.00,weatherlink.com 1.10,2013-03-01 04:28:00,
2013-02-28 20:43:00,50.0,47.0,30.38,West,264,0.0,0.0,89,0.00,,,0.00,weatherlink.com 1.10,2013-03-01 04:43:00,
2013-02-28 20:58:00,49.2,47.0,30.38,West,264,0.0,0.0,90,0.00,,,0.00,weatherlink.com 1.10,2013-03-01 04:58:00,
2013-02-28 21:13:00,48.4,46.0,30.38,West,264,0.0,0.0,91,0.00,,,0.00,weatherlink.com 1.10,2013-03-01 05:13:00,
2013-02-28 21:28:00,47.6,46.0,30.39,West,264,0.0,0.0,93,0.00,,,0.00,weatherlink.com 1.10,2013-03-01 05:28:00,
2013-02-28 21:43:00,46.9,45.0,30.39,West,264,0.0,0.0,92,0.00,,,0.00,weatherlink.com 1.10,2013-03-01 05:43:00,
2013-02-28 21:58:00,46.3,44.0,30.39,West,264,0.0,0.0,93,0.00,,,0.00,weatherlink.com 1.10,2013-03-01 05:58:00,
2013-02-28 22:13:00,45.9,44.0,30.39,West,264,0.0,0.0,93,0.00,,,0.00,weatherlink.com 1.10,2013-03-01 06:13:00,
2013-02-28 22:28:00,45.8,44.0,30.40,West,264,0.0,0.0,94,0.00,,,0.00,weatherlink.com 1.10,2013-03-01 06:28:00,
2013-02-28 22:43:00,45.5,44.0,30.40,West,264,0.0,0.0,94,0.00,,,0.00,weatherlink.com 1.10,2013-03-01 06:43:00,
2013-02-28 22:59:00,45.1,43.0,30.39,West,264,0.0,0.0,93,0.00,,,0.00,weatherlink.com 1.10,2013-03-01 06:59:00,
2013-02-28 23:14:00,44.8,43.0,30.39,West,264,0.0,0.0,94,0.00,,,0.00,weatherlink.com 1.10,2013-03-01 07:14:00,
2013-02-28 23:29:00,44.5,43.0,30.39,West,264,0.0,0.0,94,0.00,,,0.00,weatherlink.com 1.10,2013-03-01 07:29:00,
2013-02-28 23:44:00,44.2,43.0,30.39,West,264,0.0,0.0,94,0.00,,,0.00,weatherlink.com 1.10,2013-03-01 07:44:00,